Regional Weather Roundup
Issued by NWS

Home | Current Version | Previous Version | Text Only | Print | Product List | Glossary On
Versions: 1 2 3 4 5 6 7 8 9 10 11 12 13 14 15 16 17 18 19 20 21 22 23 24 25 26 27 28 29 30 31 32 33 34 35 36 37 38 39 40 41 42 43 44 45 46 47 48 49 50
000
ASUS43 KMPX 020101
RWRMN
WEATHER ROUNDUP FOR MINNESOTA
NATIONAL WEATHER SERVICE TWIN CITIES/CHANHASSEN MN
800 PM CDT SAT AUG 01 2015


NOTE: "FAIR" INDICATES FEW OR NO CLOUDS BELOW 12,000 FEET WITH NO
SIGNIFICANT WEATHER AND/OR OBSTRUCTIONS TO VISIBILITY. N/A MEANS
CURRENT SKY AND/OR WEATHER CONDITIONS ARE NOT AVAILABLE.

MNZ060>063-068>070-020200-
   Twin Cities Metro

CITY           SKY/WX    TMP DP  RH WIND       PRES   REMARKS
TWIN CITIES    PTCLDY    84  67  56 S9        29.79F
ST PAUL        CLEAR     81  66  60 S7        29.79F
CRYSTAL        CLEAR     83  66  56 S12       29.77F
LAKEVILLE      CLEAR     79  70  73 S3        29.80F
EDEN PRAIRIE   CLEAR     82  69  64 S9        29.78F
SOUTH ST PAUL  CLEAR     82  65  56 S7        29.78F
LAKE ELMO      FAIR      79  68  69 S5        29.81F
$$
MNZ001>005-007-008-013>017-022>024-027-028-020200-
   Northwest Minnesota

CITY           SKY/WX    TMP DP  RH WIND       PRES   REMARKS
BEMIDJI        CLEAR     77  57  48 W8        29.76F
HALLOCK        PTCLDY    81  63  54 SW6       29.68F
ROSEAU         PTCLDY    75  64  69 SW5       29.70F
WARROAD        PTCLDY    75  63  64 CALM      29.71S
THIEF RVR FALL PTCLDY    77  63  61 S5        29.73F
CROOKSTON      CLEAR     79  66  65 S5        29.72F
FOSSTON        PTCLDY    79  61  53 CALM      29.76F
DETROIT LAKES  CLEAR     79  63  57 S6        29.78S
MOORHEAD       CLEAR     82  66  57 CALM      29.74S
PARK RAPIDS    CLEAR     80  60  50 CALM      29.77F
MAHNOMEN       FAIR      78  63  60 CALM      29.75F
$$
MNZ006-009>011-018-025>026-020200-
   North Central Minnesota

CITY           SKY/WX    TMP DP  RH WIND       PRES   REMARKS
BAUDETTE       PTCLDY    75  57  53 SW7       29.71F
FLAG ISLAND    PTCLDY    77  54  44 W7        29.69S
INTL FALLS     PTCLDY    74  56  53 W5        29.70F
WASKISH        MOCLDY    73  61  64 SW6       29.73F
BIG FORK       MOCLDY    72  57  60 SW3       29.75S
LONGVILLE      CLEAR     77  57  50 S5        29.77S
GRAND RAPIDS   PTCLDY    75  55  50 S5        29.77F
CRANE LAKE     CLEAR     73  48  40 SW3       29.73F
ORR            PTCLDY    73  52  46 CALM      29.71F
COOK           MOCLDY    73  54  49 SW3       29.75S
WALKER         FAIR      78  57  49 CALM      29.77S
$$
MNZ012-019>021-037-020200-
   Northeast Minnesota

CITY           SKY/WX    TMP DP  RH WIND       PRES   REMARKS
DULUTH         PTCLDY    76  56  49 SW12      29.77F
ELY            PTCLDY    75  50  41 SW9       29.74F
HIBBING        PTCLDY    76  54  46 SW3       29.76F
EVELETH        PTCLDY    75  52  43 SW7       29.77S
DULUTH HARBOR  PTCLDY    79  61  53 SW10      29.75F
TWO HARBORS    CLEAR     75  61  60 SW6       29.73F
SILVER BAY     CLEAR     72  55  56 CALM      29.73S
GRAND MARAIS     N/A     50  44  80 W5        29.70F
G MARAIS ARPRT PTCLDY    66  52  59 CALM      29.76F
$$
MNZ029>031-032-039>041-046>048-054>057-064-020200-
   West Central Minnesota

CITY           SKY/WX    TMP DP  RH WIND       PRES   REMARKS
FERGUS FALLS   CLEAR     81  70  69 S6        29.72F
WHEATON        CLEAR     79  70  73 S5        29.74F
MORRIS         CLEAR     81  70  69 S7        29.74F
ALEXANDRIA     CLEAR     81  70  69 S7        29.78F
ELBOW LAKE     FAIR      81  72  74 SE7       29.74F
WADENA         PTCLDY    79  64  61 CALM      29.77S
GLENWOOD       CLEAR     81  70  69 S5        29.78F
APPLETON       CLEAR     82  63  51 SW7       29.75S
BENSON         CLEAR     81  70  69 SW3       29.76S
ORTONVILLE     CLEAR     82  64  54 S3        29.75S
MADISON        CLEAR     81  66  61 S3        29.76F
WILLMAR        FAIR      81  70  69 CALM      29.79F
$$
MNZ033>034-036-042>043-049>051-058-059-020200-
   Central Minnesota

CITY           SKY/WX    TMP DP  RH WIND       PRES   REMARKS
ST CLOUD       CLEAR     79  67  66 S6        29.77F
SAUK CENTRE    FAIR      79  71  76 S6        29.77F
PAYNESVILLE    CLEAR     78  64  61 S6        29.78F
AITKIN         CLEAR     75  59  57 CALM      29.77F
PINE RIVER     CLEAR     77  63  61 CALM      29.81F
BRAINERD       CLEAR     77  61  57 S3        29.78F
STAPLES        PTCLDY    79  63  57 S5        29.77F
LONG PRAIRIE   FAIR      77  68  73 SE5       29.78F
LITTLE FALLS   CLEAR     79  63  57 CALM      29.78F
LITCHFIELD     CLEAR     81  66  61 SW3       29.80R
BUFFALO        CLEAR     81  67  63 SE3       29.79F
MAPLE LAKE     CLEAR     81  70  69 S3        29.80F
$$
MNZ037-044-045-052-053-020200-
   East Central Minnesota

CITY           SKY/WX    TMP DP  RH WIND       PRES   REMARKS
PRINCETON      CLEAR     81  66  61 S5        29.78F
MORA           CLEAR     75  61  60 S3        29.81S
CAMBRIDGE      CLEAR     81  64  57 CALM      29.77F
RUSH CITY      PTCLDY    75  64  67 CALM      29.80S
MOOSE LAKE     PTCLDY    73  61  64 SW3       29.77F
HINCKLEY       MOCLDY    75  64  69 S3        29.79S
CLOQUET        PTCLDY    75  54  46 SW5       29.78F
MCGREGOR       CLEAR     77  59  53 S5        29.79F
$$
MNZ071>073-080-081-089-090-097-098-020200-
   Southwest Minnesota

CITY           SKY/WX    TMP DP  RH WIND       PRES   REMARKS
MONTEVIDEO     CLEAR     82  66  57 SW8       29.78F
GRANITE FALLS  CLEAR     77  68  74 S7        29.80S
CANBY          CLEAR     82  64  53 CALM      29.79S
MARSHALL       CLEAR     79  63  57 S7        29.82S
REDWOOD FALLS  CLEAR     81  68  64 S10       29.79F
OLIVIA         CLEAR     77  64  65 S6        29.79F
PIPESTONE      PTCLDY    75  64  69 SW7       29.84F
WINDOM         CLEAR     79  64  61 SW8       29.85S
WORTHINGTON    CLEAR     75  63  64 S10       29.86F
JACKSON        CLEAR     79  63  57 SW7       29.87S
TRACY          CLEAR     81  66  61 S8        29.82F
SLAYTON        CLEAR     75  64  66 CALM      29.85F
$$
MNZ065>067-074>077-082>085-091>093-020200-
   South Central Minnesota

CITY           SKY/WX    TMP DP  RH WIND       PRES   REMARKS
MANKATO        CLEAR     81  64  57 SW10      29.82S
NEW ULM        CLEAR     81  64  57 SW6       29.81F
ST JAMES       CLEAR     81  68  65 S6        29.84S
FAIRMONT       CLEAR     79  61  53 SW7       29.85S
GLENCOE        CLEAR     82  69  64 SW3       29.79F
FARIBAULT      CLEAR     81  66  61 S5        29.83S
OWATONNA       CLEAR     79  66  65 S8        29.84S
WASECA         CLEAR     77  66  69 S7        29.85S
ALBERT LEA     CLEAR     81  64  57 SW3       29.86S
$$
MNZ078>079-086>088-094>096-020200-
   Southeast Minnesota

CITY           SKY/WX    TMP DP  RH WIND       PRES   REMARKS
ROCHESTER      CLEAR     76  68  76 S8        29.86F
RED WING       CLEAR     82  64  54 CALM      29.79F
STANTON        CLEAR     81  69  68 S3        29.79F
DODGE CENTER   CLEAR     77  68  73 SW7       29.85F
WINONA         CLEAR     79  64  61 CALM      29.83F
AUSTIN         CLEAR     79  70  73 S8        29.86S
PRESTON        CLEAR     78  67  70 S5        29.87F
$$
ABBREVIATIONS USED IN REMARKS
   TC - TEMPERATURES IN CELSIUS
  WCI - WIND CHILL INDEX
   HX - HEAT INDEX
  VSB - VISIBILITY
$$


USA.gov is the U.S. government's official web portal to all federal, state and local government web resources and services.